LEMUR-2-DJARA (46926 NORAD) Tracking and Keplerian Element Data

This shows tracking and keplerian element data for the satellite.

Feedback or suggestion? Click here.




ElementValue
Catalog46926
NameLEMUR-2-DJARA
Epoch Orbit1187
Epoch Day20.61357428
Epoch Year2021
RAAN351.3145
Inclination51.644
Eccentricity2.57E-05
Argument of Perigee7.354
Mean Anonmoly352.7454
Mean Motion15.52972571
Decay Rate0.00017085
L11 46926U 98067RW 21020.61357428 .00017085 00000-0 27600-3 0 9997
L22 46926 51.6440 351.3145 0000257 7.3540 352.7454 15.52972571 11875

Live tracking and technical data element details for LEMUR-2-DJARA (NORAD 46926). LEMUR-2-DJARA can be tracked NOW for your location showing map with azimuth and elevation plus other details from your city location.

Track the satellite on the map from your city or location and see movement details for azimuth, elevation, latitude, longitude, range, height, and movement on the map or in text.







IsCatalogInMostPopularTable: catalog: 46926, numindb: 27
Update: records affected: 1



GetName: 46926 LEMUR-2-DJARA

Hit Count: updated at: Fri, 22 Jan 2021 15:04:18 GMT